Weather History for Cumberland, MD

Change the Weather History Date:

Friday, February 8, 2013

  Actual Average (KMRB) Record (KMRB)
Temperature  
Mean Temperature 36 °F 32 °F  
Max Temperature 39 °F 42 °F 66 °F (1965)
Min Temperature 30 °F 23 °F -9 °F (1967)
Degree Days  
Heating Degree Days 30 33  
Month to date heating degree days 264  
Since 1 July heating degree days 3347  
Cooling Degree Days 0 0  
Month to date cooling degree days 0  
Year to date cooling degree days 0  
Moisture  
Dew Point 30 °F    
Average Humidity 87    
Maximum Humidity 100    
Minimum Humidity 69    
Precipitation  
Precipitation 0.00 in 0.08 in 1.24 in (1961)
Month to date precipitation 0.66  
Year to date precipitation 3.10  
Sea Level Pressure  
Sea Level Pressure 29.99 in    
Wind  
Wind Speed 4 mph (SW)    
Max Wind Speed 21 mph    
Max Gust Speed 38 mph    
Visibility 9 miles    
Events      
T = Trace of Precipitation, MM = Missing Value Source: NWS Daily Summary

Daily Weather History Graph

Daily Weather History Graph

Search for Another Location

Airport:

Trip Planner

Search our weather history database for the weather conditions in past years. The results will help you decide how hot, cold, wet, or windy it might be!

Date:

Astronomy

Feb. 08, 2013 Rise Set
Actual Time 7:15 AM EST 5:43 PM EST
Civil Twilight 6:47 AM EST 6:11 PM EST
Nautical Twilight 6:15 AM EST 6:43 PM EST
Astronomical Twilight 5:44 AM EST 7:14 PM EST
Moon 5:42 AM EST (2/8) 4:15 PM EST (2/8)
Length of Visible Light 11h 24m
Length of Day
10h 28m
Waning Crescent, 3% of the Moon is Illuminated
Feb 8
Waning Crescent
Feb 10
New
Feb 17
First Quarter
Feb 25
Full
Mar 4
Last Quarter

Hourly Weather History & Observations

Time (EST) Temp. Windchill Dew Point Humidity Pressure Visibility Wind Dir Wind Speed Gust Speed Precip Events Conditions
12:03 AM 35.6 °F 30.7 °F 28.4 °F 75% 30.17 in 10.0 mi SE 5.8 mph - N/A   Overcast
12:23 AM 35.6 °F 32.8 °F 28.4 °F 75% 30.17 in 10.0 mi ESE 3.5 mph - N/A   Overcast
12:43 AM 35.6 °F - 28.4 °F 75% 30.16 in 10.0 mi Calm Calm - N/A   Overcast
1:03 AM 35.6 °F - 28.4 °F 75% 30.15 in 10.0 mi Calm Calm - N/A   Overcast
1:23 AM 33.8 °F 30.8 °F 28.4 °F 81% 30.14 in 10.0 mi ESE 3.5 mph - N/A   Overcast
1:43 AM 33.8 °F 28.6 °F 30.2 °F 87% 30.13 in 10.0 mi SE 5.8 mph - N/A   Mostly Cloudy
2:04 AM 33.8 °F 27.0 °F 30.2 °F 87% 30.12 in 10.0 mi SE 8.1 mph - N/A   Overcast
2:24 AM 33.8 °F 27.7 °F 30.2 °F 87% 30.11 in 10.0 mi SE 6.9 mph - N/A   Overcast
2:44 AM 33.8 °F 27.7 °F 30.2 °F 87% 30.10 in 10.0 mi SE 6.9 mph - N/A   Overcast
3:04 AM 33.8 °F 28.6 °F 30.2 °F 87% 30.10 in 10.0 mi SSE 5.8 mph - N/A   Overcast
3:24 AM 33.8 °F 29.6 °F 30.2 °F 87% 30.09 in 10.0 mi SSE 4.6 mph - N/A   Overcast
3:44 AM 33.8 °F 28.6 °F 30.2 °F 87% 30.08 in 10.0 mi SSE 5.8 mph - N/A   Overcast
4:04 AM 33.8 °F 27.7 °F 32.0 °F 93% 30.07 in 10.0 mi SE 6.9 mph - N/A   Overcast
4:24 AM 33.8 °F 27.7 °F 32.0 °F 93% 30.07 in 10.0 mi SSE 6.9 mph - N/A   Overcast
4:44 AM 33.8 °F - 32.0 °F 93% 30.07 in 10.0 mi Calm Calm - N/A   Overcast
5:04 AM 33.8 °F 30.8 °F 32.0 °F 93% 30.06 in 10.0 mi SSE 3.5 mph - N/A   Mostly Cloudy
5:24 AM 33.8 °F 30.8 °F 32.0 °F 93% 30.06 in 10.0 mi SSE 3.5 mph - N/A   Overcast
5:44 AM 33.8 °F 29.6 °F 32.0 °F 93% 30.05 in 10.0 mi South 4.6 mph - N/A   Overcast
6:04 AM 33.8 °F - 32.0 °F 93% 30.04 in 10.0 mi Calm Calm - N/A   Overcast
6:24 AM 33.8 °F 30.8 °F 32.0 °F 93% 30.03 in 10.0 mi SSW 3.5 mph - N/A   Overcast
6:44 AM 32.0 °F - 32.0 °F 100% 30.02 in 10.0 mi Calm Calm - N/A   Overcast
7:04 AM 33.8 °F - 32.0 °F 93% 30.02 in 10.0 mi Calm Calm - N/A   Overcast
7:24 AM 33.8 °F - 32.0 °F 93% 30.01 in 10.0 mi Calm Calm - N/A   Overcast
7:44 AM 33.8 °F - 32.0 °F 93% 30.01 in 10.0 mi Calm Calm - N/A   Overcast
8:55 AM 33.8 °F - 32.0 °F 93% 29.98 in 10.0 mi Calm Calm - N/A   Mostly Cloudy
9:34 AM 33.8 °F - 32.0 °F 93% 29.96 in 10.0 mi Calm Calm - N/A   Overcast
9:54 AM 33.8 °F - 32.0 °F 93% 29.95 in 10.0 mi Calm Calm - N/A   Mostly Cloudy
10:14 AM 33.8 °F - 32.0 °F 93% 29.94 in 7.0 mi Calm Calm - N/A   Mostly Cloudy
10:34 AM 33.8 °F - 32.0 °F 93% 29.93 in 5.0 mi Calm Calm - N/A   Mostly Cloudy
10:54 AM 33.8 °F - 32.0 °F 93% 29.92 in 5.0 mi Calm Calm - N/A   Overcast
11:14 AM 33.8 °F - 32.0 °F 93% 29.89 in 10.0 mi Calm Calm - N/A   Mostly Cloudy
11:34 AM 33.8 °F - 32.0 °F 93% 29.90 in 10.0 mi Calm Calm - N/A   Mostly Cloudy
11:54 AM 33.8 °F - 32.0 °F 93% 29.90 in 4.0 mi Calm Calm - N/A   Overcast
12:14 PM 33.8 °F - 33.8 °F 100% 29.88 in 7.0 mi Calm Calm - N/A   Mostly Cloudy
12:34 PM 33.8 °F - 33.8 °F 100% 29.87 in 7.0 mi Calm Calm - N/A   Overcast
12:54 PM 33.8 °F - 33.8 °F 100% 29.86 in 5.0 mi Calm Calm - N/A   Overcast
1:14 PM 33.8 °F - 33.8 °F 100% 29.86 in 7.0 mi Calm Calm - N/A   Overcast
1:34 PM 33.8 °F - 33.8 °F 100% 29.85 in 10.0 mi Calm Calm - N/A   Mostly Cloudy
1:54 PM 33.8 °F - 33.8 °F 100% 29.85 in 10.0 mi Calm Calm - N/A   Mostly Cloudy
2:14 PM 35.6 °F - 33.8 °F 93% 29.84 in 10.0 mi Calm Calm - N/A   Mostly Cloudy
2:34 PM 35.6 °F - 33.8 °F 93% 29.83 in 7.0 mi Calm Calm - N/A   Mostly Cloudy
2:55 PM 35.6 °F - 33.8 °F 93% 29.84 in 7.0 mi Calm Calm - N/A   Overcast
3:15 PM 35.6 °F 32.8 °F 33.8 °F 93% 29.85 in 10.0 mi SSE 3.5 mph - N/A   Mostly Cloudy
3:35 PM 35.6 °F 31.7 °F 33.8 °F 93% 29.85 in 7.0 mi SSE 4.6 mph - N/A   Mostly Cloudy
3:55 PM 35.6 °F 30.7 °F 33.8 °F 93% 29.86 in 7.0 mi WSW 5.8 mph - N/A   Mostly Cloudy
4:15 PM 39.2 °F 31.6 °F 33.8 °F 81% 29.86 in 10.0 mi WNW 12.7 mph 24.2 mph N/A   Mostly Cloudy
4:35 PM 37.4 °F 28.5 °F 32.0 °F 81% 29.86 in 10.0 mi West 15.0 mph 24.2 mph N/A   Mostly Cloudy
4:55 PM 37.4 °F 29.8 °F 32.0 °F 81% 29.87 in 7.0 mi West 11.5 mph 29.9 mph N/A   Mostly Cloudy
5:15 PM 37.4 °F 34.9 °F 32.0 °F 81% 29.88 in 10.0 mi WSW 3.5 mph - N/A   Mostly Cloudy
5:35 PM 37.4 °F 30.8 °F 30.2 °F 75% 29.90 in 10.0 mi NNW 9.2 mph 18.4 mph N/A   Mostly Cloudy
5:55 PM 35.6 °F 27.5 °F 30.2 °F 81% 29.91 in 10.0 mi WNW 11.5 mph 25.3 mph N/A   Mostly Cloudy
6:15 PM 35.6 °F 29.9 °F 30.2 °F 81% 29.92 in 10.0 mi West 6.9 mph 24.2 mph N/A   Mostly Cloudy
6:35 PM 33.8 °F 25.3 °F 30.2 °F 87% 29.93 in 10.0 mi West 11.5 mph 16.1 mph N/A   Mostly Cloudy
6:55 PM 33.8 °F 24.8 °F 28.4 °F 81% 29.95 in 7.0 mi WNW 12.7 mph 18.4 mph N/A   Mostly Cloudy
7:15 PM 33.8 °F 24.3 °F 26.6 °F 75% 29.96 in 10.0 mi West 13.8 mph 34.5 mph N/A   Mostly Cloudy
7:35 PM 32.0 °F 19.8 °F 26.6 °F 80% 29.98 in 10.0 mi West 20.7 mph 38.0 mph N/A   Mostly Cloudy
7:55 PM 32.0 °F 21.2 °F 24.8 °F 75% 29.98 in 10.0 mi WNW 16.1 mph 35.7 mph N/A   Mostly Cloudy
9:55 PM 32.0 °F 20.5 °F 23.0 °F 69% 30.04 in 10.0 mi WNW 18.4 mph 29.9 mph N/A   Mostly Cloudy
10:15 PM 32.0 °F 20.8 °F 23.0 °F 69% 30.04 in 10.0 mi WNW 17.3 mph 24.2 mph N/A   Mostly Cloudy
10:35 PM 32.0 °F 24.8 °F 23.0 °F 69% 30.05 in 10.0 mi West 8.1 mph 20.7 mph N/A   Mostly Cloudy
10:55 PM 32.0 °F 24.2 °F 23.0 °F 69% 30.06 in 10.0 mi West 9.2 mph 17.3 mph N/A   Mostly Cloudy
11:15 PM 32.0 °F 24.2 °F 23.0 °F 69% 30.07 in 7.0 mi WNW 9.2 mph 23.0 mph N/A   Mostly Cloudy
11:36 PM 32.0 °F 24.8 °F 23.0 °F 69% 30.07 in 7.0 mi NW 8.1 mph 16.1 mph N/A   Overcast
11:56 PM 30.2 °F 26.7 °F 23.0 °F 75% 30.07 in 7.0 mi North 3.5 mph - N/A   Overcast